[[{"header":{"parameterUnit":"m.s-1","parameterCategory":1,"la1":30.2991,"la2":30.254,"lo1":-89.0895,"lo2":-89.0444,"dy":0.0017,"dx":0.0017,"nx":28,"ny":28,"refTime":"2023-10-19T21:00:00:Z","depth":0,"parameterNumber":2,"parameterNumberName":"U-component_of_WINDS"},"data":[0,0,0,0,0,0,0,0,0,0,0,0,0,0,0,0,0,0,0,0,0,0,0,0,0,0,0,0,0,0,0,0,0,0,0,0,0,0,0,0,0,0,0,0,0,0,0,0,0,0,0,0,0,0,0,0,0,0,2.7808,2.7809,0,2.788,2.7881,2.7882,2.7851,2.7849,2.7847,2.7845,2.792,2.7924,2.7927,0,0,0,0,0,0,0,0,0,0,0,0,0,2.7645,2.7648,2.7808,2.7809,2.781,2.788,2.7881,2.7882,2.7851,2.7849,2.7847,2.7845,2.7919,2.7923,2.7928,0,0,0,0,0,0,0,0,0,0,0,0,0,2.7716,2.7649,2.7808,2.7803,2.7803,2.788,2.7881,2.7883,2.7851,2.7849,2.7846,2.7844,2.7918,2.7923,2.7928,2.8015,0,0,2.7945,2.7947,0,0,0,0,0,0,0,0,2.7712,2.7722,2.7803,2.7803,2.7804,2.7854,2.7851,2.7927,2.7852,2.7833,2.7845,2.7842,2.79,2.7907,2.7926,2.8019,2.8022,2.7946,2.7949,2.7951,2.7953,0,0,0,0,0,0,0,2.7708,2.7719,2.7837,2.7804,2.7805,2.7797,2.7805,2.7865,2.7881,2.7835,2.7832,2.7841,2.79,2.7921,2.7928,2.8023,2.7945,2.795,2.7954,2.7956,2.819,2.8193,0,0,0,0,0,0,2.7702,2.7715,2.7835,2.7839,2.7751,2.7803,2.7811,2.784,2.788,2.7883,2.7843,2.784,2.7913,2.7922,2.7931,2.8034,2.7951,2.7956,2.7959,2.8187,2.8191,2.8194,0,0,0,0,0,0,2.7699,2.7713,2.7832,2.7777,2.7791,2.7808,2.7842,2.7843,2.7864,2.7887,2.7889,2.7862,2.7911,2.7923,2.7994,2.8037,2.7959,2.7964,2.8184,2.8188,2.8192,2.8243,0,0,0,0,0,0,2.7695,2.7712,2.7745,2.7778,2.7794,2.7894,2.7845,2.7847,2.7874,2.7869,2.7905,2.7908,2.791,2.7986,2.8,2.8043,2.7968,2.818,2.8186,2.8191,2.8238,2.8249,2.8258,0,0,0,0,0,2.7689,2.7757,2.7747,2.7761,2.7835,2.7896,2.7906,2.7906,2.7877,2.791,2.7925,2.7907,2.803,2.7994,2.8009,2.8054,2.8177,2.8184,2.8191,2.8233,2.8247,2.8258,0,0,0,0,0,0,2.7729,2.7761,2.775,2.7831,2.7861,2.7891,2.7933,2.7921,2.796,2.7954,2.7954,2.7962,2.8036,2.8052,2.8011,2.814,2.8099,2.8109,2.8127,2.814,2.815,2.8144,2.7973,0,0,0,0,0,2.7747,2.7793,2.7819,2.7888,2.7903,2.7916,2.7942,2.794,2.7972,2.7984,2.8004,2.8036,2.8081,2.8112,2.8155,2.824,2.8248,2.8279,2.8289,2.8297,2.8306,2.8352,2.8366,2.8216,2.8216,2.8216,0,0,2.7785,2.7808,2.7837,2.7896,2.7919,2.7968,2.7927,2.798,2.8016,2.7993,2.8061,2.8077,2.8112,2.8191,2.8227,2.8207,2.8349,2.8306,2.8312,2.8316,2.836,2.8375,2.8387,2.822,2.822,2.8219,0,0,2.7878,2.7901,2.796,2.7985,2.802,2.8028,2.8043,2.8075,2.8084,2.8153,2.8137,2.818,2.8259,2.8285,2.8308,2.8413,2.8398,2.8427,2.848,2.8525,2.8537,2.8548,2.8585,2.8598,2.8436,2.8436,2.8436,0,2.7921,2.7993,2.7992,2.8047,2.8073,2.8055,2.8115,2.8139,2.8187,2.8206,2.8183,2.8282,2.8304,2.8389,2.8415,2.8434,2.8451,2.8422,2.8535,2.8546,2.8556,2.8591,2.8605,2.8439,2.8439,2.8438,2.8438,0,2.8043,2.8094,2.8137,2.8184,2.8216,2.8273,2.8282,2.8314,2.8309,2.832,2.839,2.8417,2.8465,2.8486,2.8482,2.857,2.8556,2.8535,2.8493,2.8573,2.8606,2.862,2.8444,2.8442,2.8441,2.8441,0,0,2.8162,2.8209,2.8225,2.8246,2.8285,2.8324,2.8381,2.8428,2.8455,2.849,2.8537,2.8605,2.8585,2.8612,2.8611,2.8651,2.8732,2.8625,2.8625,2.8643,2.8831,2.8846,2.8861,2.8723,2.8726,2.8728,2.8827,0,2.8258,2.8357,2.8359,2.845,2.8496,2.848,2.853,2.8559,2.8571,2.8612,2.8626,2.8673,2.8644,2.866,2.8699,2.8714,2.877,2.8707,2.8767,2.8769,2.8758,2.8879,2.8895,2.8988,2.884,2.8843,2.8844,0,2.8383,2.8421,2.8516,2.8549,2.8568,2.8613,2.8656,2.8696,2.873,2.8736,2.8766,2.8759,2.8818,2.8776,2.8856,2.8814,2.8839,2.885,2.8854,2.8858,2.8811,2.8886,2.9017,2.9031,2.8865,2.8863,2.8862,0,2.8459,2.8535,2.8601,2.862,2.866,2.8692,2.871,2.874,2.8769,2.8807,2.8826,2.8871,2.8895,2.8931,2.8937,2.8906,2.9018,2.8976,2.9024,2.9024,2.9047,2.9045,2.9183,2.9065,2.9065,2.9065,2.9064,0,2.8565,2.8624,2.8636,2.8677,2.8743,2.8745,2.881,2.8826,2.8854,2.8898,2.8887,2.8929,2.8935,2.8979,2.8984,2.905,2.9061,2.9068,2.9068,2.9068,2.9067,2.9083,2.9077,2.9068,2.9068,2.9067,2.9066,0,2.8661,2.8671,2.8743,2.8775,2.8785,2.8832,2.8859,2.8899,2.891,2.8966,2.8979,2.8997,2.9047,2.9057,2.9117,2.9121,2.9199,2.9194,2.9188,2.9187,2.9234,2.9229,2.9386,2.9407,2.9276,2.9277,2.9278,0,2.8727,2.8772,2.8809,2.8838,2.8857,2.8904,2.8933,2.8937,2.8968,2.901,2.9045,2.9094,2.9134,2.9216,2.9234,2.928,2.9275,2.9327,2.9282,2.928,2.9275,2.9271,2.9276,2.9335,2.9337,2.9338,2.9339,0,2.8843,2.8846,2.8888,2.8933,2.8968,2.9003,2.9036,2.9061,2.907,2.9105,2.9157,2.9188,2.9249,2.9298,2.9344,2.9363,2.9353,2.9353,2.9366,2.9366,2.936,2.9363,2.921,2.9349,2.9348,2.9347,2.9347,2.9346,2.8925,2.8964,2.8997,2.9044,2.907,2.9102,2.914,2.9157,2.92,2.925,2.925,2.9307,2.934,2.9401,2.9423,2.9467,2.9451,2.947,2.9475,2.9479,2.9483,2.9354,2.9476,2.9476,2.9475,2.9475,2.9475,0,2.904,2.906,2.9104,2.9151,2.9189,2.9176,2.9213,2.9245,2.9295,2.9326,2.9366,2.9425,2.9473,2.9496,2.9544,2.9575,2.9571,2.9587,2.9584,2.9589,2.9496,2.9479,2.9589,2.9589,2.9589,2.9589,2.9589,2.9589,2.9104,2.9169,2.9177,2.9255,2.9275,2.933,2.9352,2.9382,2.9407,2.9474,2.9514,2.9528,2.9557,2.9607,2.965,2.9656,2.9673,2.9691,2.9695,2.9607,2.9595,2.9584,2.9568,2.9696,2.9696,2.9784,2.9784,2.9785]},{"header":{"parameterUnit":"m.s-1","parameterCategory":1,"la1":30.2991,"la2":30.254,"lo1":-89.0895,"lo2":-89.0444,"dy":0.0017,"dx":0.0017,"nx":28,"ny":28,"refTime":"2023-10-19T21:00:00:Z","depth":0,"parameterNumber":3,"parameterNumberName":"V-component_of_WINDS"},"data":[0,0,0,0,0,0,0,0,0,0,0,0,0,0,0,0,0,0,0,0,0,0,0,0,0,0,0,0,0,0,0,0,0,0,0,0,0,0,0,0,0,0,0,0,0,0,0,0,0,0,0,0,0,0,0,0,0,0,2.0477,2.0478,0,2.0485,2.0485,2.0485,2.0442,2.044,2.0439,2.0438,2.0445,2.0446,2.0448,0,0,0,0,0,0,0,0,0,0,0,0,0,2.0426,2.0427,2.0477,2.0478,2.0478,2.0485,2.0485,2.0485,2.0442,2.044,2.0439,2.0437,2.0445,2.0446,2.0448,0,0,0,0,0,0,0,0,0,0,0,0,0,2.0442,2.0427,2.0477,2.0457,2.0455,2.0485,2.0485,2.0485,2.0442,2.044,2.0438,2.0437,2.0444,2.0446,2.0448,2.0497,0,0,2.0454,2.0455,0,0,0,0,0,0,0,0,2.0441,2.0444,2.046,2.0459,2.0457,2.046,2.0469,2.0489,2.0443,2.0447,2.0438,2.0436,2.0452,2.0453,2.0458,2.0497,2.0498,2.0454,2.0455,2.0456,2.0457,0,0,0,0,0,0,0,2.044,2.0444,2.048,2.046,2.0458,2.0447,2.0448,2.0473,2.046,2.0447,2.0444,2.0445,2.045,2.0456,2.0458,2.0498,2.0454,2.0456,2.0457,2.0458,2.0577,2.0579,0,0,0,0,0,0,2.0442,2.0443,2.048,2.048,2.0444,2.045,2.045,2.0461,2.0459,2.0457,2.0447,2.0443,2.0454,2.0456,2.0458,2.0515,2.0456,2.0458,2.0459,2.0575,2.0577,2.0579,0,0,0,0,0,0,2.0441,2.0446,2.048,2.0461,2.0464,2.0453,2.0465,2.0462,2.0468,2.0459,2.0456,2.0455,2.0452,2.0455,2.0488,2.0515,2.0459,2.0461,2.0573,2.0576,2.0578,2.063,0,0,0,0,0,0,2.044,2.0446,2.0464,2.0462,2.0466,2.051,2.0467,2.0464,2.0472,2.0467,2.0467,2.0465,2.0451,2.0485,2.049,2.0517,2.0462,2.057,2.0574,2.0577,2.0626,2.0634,2.0642,0,0,0,0,0,2.0438,2.0479,2.0466,2.047,2.0489,2.0511,2.0513,2.0497,2.0474,2.0493,2.0487,2.0465,2.0511,2.0488,2.0493,2.0522,2.0568,2.0573,2.0577,2.0622,2.0633,2.0642,0,0,0,0,0,0,2.0485,2.0478,2.0463,2.0504,2.0509,2.0504,2.0527,2.0509,2.052,2.0515,2.0494,2.0494,2.053,2.0529,2.0504,2.0569,2.0536,2.0541,2.0568,2.0578,2.0586,2.0586,2.0464,0,0,0,0,0,2.05,2.0519,2.0512,2.0549,2.0552,2.0539,2.0548,2.0535,2.0539,2.054,2.0537,2.0541,2.0556,2.0567,2.0581,2.0625,2.0624,2.0647,2.0655,2.0661,2.0667,2.069,2.07,2.0594,2.0594,2.0594,0,0,2.0532,2.053,2.0543,2.0558,2.056,2.058,2.0541,2.0564,2.0578,2.0544,2.0574,2.0572,2.0575,2.0613,2.063,2.0613,2.0696,2.0667,2.0672,2.0674,2.0695,2.0705,2.0714,2.0597,2.0596,2.0596,0,0,2.0599,2.06,2.0631,2.0633,2.0636,2.0628,2.0635,2.0633,2.063,2.066,2.0635,2.0651,2.0678,2.0682,2.0687,2.0755,2.0735,2.076,2.0802,2.0825,2.0833,2.084,2.0865,2.0874,2.0765,2.0765,2.0765,0,2.0638,2.0667,2.0649,2.0673,2.068,2.065,2.0681,2.0684,2.0692,2.0697,2.0678,2.0711,2.0711,2.075,2.0767,2.0772,2.078,2.076,2.0833,2.084,2.0847,2.087,2.0879,2.0768,2.0768,2.0768,2.0767,0,2.0714,2.0735,2.0759,2.0768,2.0777,2.0805,2.079,2.0802,2.0788,2.0781,2.0812,2.0811,2.0824,2.0832,2.0819,2.0869,2.0858,2.0837,2.0803,2.086,2.0882,2.089,2.0773,2.0772,2.0771,2.077,0,0,2.0813,2.081,2.0819,2.0822,2.0823,2.0839,2.0864,2.0877,2.0888,2.0894,2.0915,2.0938,2.0918,2.0924,2.091,2.0931,2.0985,2.0906,2.0906,2.0921,2.104,2.1056,2.1067,2.0971,2.0973,2.0974,2.104,0,2.0879,2.0923,2.0907,2.0952,2.0971,2.0942,2.0964,2.0967,2.0962,2.0976,2.0969,2.0986,2.0958,2.0962,2.098,2.0974,2.1008,2.0969,2.0991,2.0992,2.0991,2.1078,2.1096,2.1158,2.1048,2.1049,2.105,0,2.0962,2.0972,2.1019,2.1016,2.1023,2.1044,2.1054,2.1068,2.1071,2.1065,2.1072,2.1054,2.1078,2.1045,2.1079,2.1052,2.106,2.1058,2.106,2.1062,2.1025,2.1082,2.1177,2.1187,2.1063,2.1062,2.1061,0,2.1029,2.1054,2.1085,2.1088,2.1086,2.1101,2.1101,2.1101,2.111,2.1119,2.1124,2.1135,2.1142,2.1151,2.1136,2.1113,2.1172,2.1137,2.1168,2.1169,2.1182,2.1182,2.128,2.1187,2.1187,2.1187,2.1186,0,2.1105,2.1135,2.1115,2.1134,2.1167,2.1148,2.118,2.1177,2.1178,2.1196,2.1171,2.1188,2.1168,2.1183,2.1172,2.1202,2.1205,2.1201,2.1198,2.1203,2.1204,2.1208,2.1204,2.1189,2.1189,2.1188,2.1188,0,2.1186,2.1173,2.1206,2.1201,2.12,2.1224,2.122,2.1237,2.1229,2.1252,2.1257,2.1244,2.1261,2.1247,2.1264,2.1256,2.1296,2.1286,2.1295,2.1292,2.1324,2.1322,2.1429,2.1442,2.1341,2.1342,2.1342,0,2.1235,2.1258,2.1255,2.1265,2.1266,2.1283,2.1292,2.1273,2.1283,2.1287,2.1304,2.1319,2.133,2.1358,2.135,2.1362,2.1353,2.139,2.1355,2.136,2.1354,2.1353,2.1355,2.1397,2.1398,2.1399,2.14,0,2.1324,2.1317,2.133,2.1341,2.1352,2.136,2.1365,2.1375,2.1356,2.1368,2.1385,2.1394,2.141,2.1425,2.1434,2.1434,2.1414,2.1411,2.1419,2.1425,2.143,2.1428,2.1315,2.1409,2.1408,2.1407,2.1407,2.1407,2.1391,2.1409,2.141,2.1426,2.1428,2.1434,2.145,2.1444,2.1458,2.147,2.1458,2.1478,2.1479,2.149,2.1492,2.1507,2.1492,2.1504,2.1506,2.151,2.1514,2.1427,2.1509,2.1509,2.1509,2.1508,2.1508,0,2.1479,2.1478,2.1492,2.1501,2.1513,2.1493,2.1498,2.151,2.1528,2.1531,2.1542,2.1561,2.1575,2.1568,2.158,2.1594,2.1585,2.1598,2.1597,2.1597,2.1527,2.1519,2.1605,2.1605,2.1605,2.1605,2.1605,2.1605,2.1526,2.1556,2.1549,2.158,2.1578,2.1598,2.1603,2.1608,2.161,2.1633,2.1644,2.164,2.1639,2.165,2.1662,2.166,2.1666,2.1682,2.1676,2.1611,2.1602,2.1593,2.1585,2.1683,2.1683,2.1745,2.1745,2.1746]}]]